Powrót do katalogu

STARLINK-33748

AktywnyŁącznośćVLEO
NORAD 63383·PAYLOAD·🇺🇸 United States

Wystrzelony Mar 26, 2025 z Vandenberg Space Force Base

Loading…

Następne Przeloty (najbliższe 24 godziny)

TLE

ŚwieżeSource: CelesTrak SupGP

Epoka: Sep 15, 2026, 03:15 UTC

1 63383C 25063W   26258.13590278 -.00029072  00000+0 -85871-3 0  2588
2 63383  53.1576 260.6675 0001201  96.0740 117.0140 15.34413267    15

Śledź STARLINK-33748 w czasie rzeczywistym z AllMySat

Download on the App Store